Regional Weather Roundup
Issued by NWS Green Bay, WI

Home | Current Version | Previous Version | Graphics & Text | Print | Product List | Glossary Off
Versions: 1 2 3 4 5 6 7 8 9 10 11 12 13 14 15 16 17 18 19 20 21 22 23 24 25 26 27 28 29 30 31 32 33 34 35 36 37 38 39 40 41 42 43 44 45 46 47 48 49 50

000
ASUS43 KGRB 010610
RWRGRB

NORTH-CENTRAL AND NORTHEAST WISCONSIN REGIONAL WEATHER ROUNDUP
NATIONAL WEATHER SERVICE GREEN BAY WI
100 AM CDT WED APR 01 2015

WIZ005-009-010>012-018-019-010700-
NORTH CENTRAL WISCONSIN

CITY           SKY/WX    TMP DP  RH WIND       PRES   REMARKS
IRONWOOD       MOCLDY    30  28  93 E5        29.92F
MANITOWISH WTR FOG       26  26 100 CALM      29.93F VSB 1
ARBOR VITAE    CLEAR     28  26  93 CALM      29.94S
EAGLE RIVER    CLEAR     25  23  93 CALM      29.93S
LAND O LAKES   PTCLDY    26  26  99 NE5       29.94F
RHINELANDER    CLEAR     26  23  88 CALM      29.95S
PHILLIPS       CLEAR     28  27  96 CALM      29.93S
ANTIGO         CLEAR     30  29  96 CALM      29.94F
TOMAHAWK       CLEAR     25  24  96 CALM      29.95S
MERRILL        CLEAR     26  25  98 CALM      29.95F
$$

WIZ013-073-010700-
NORTHEAST WISCONSIN

CITY           SKY/WX    TMP DP  RH WIND       PRES   REMARKS
IRON MOUNTAIN  CLOUDY    27  26  96 CALM      29.95R
MARINETTE      CLEAR     27  25  93 NW3       29.97S
OCONTO         CLEAR     26  26 100 CALM      29.98R
$$

WIZ017-030-035>037-045-010700-
CENTRAL WISCONSIN

CITY           SKY/WX    TMP DP  RH WIND       PRES   REMARKS
MEDFORD        CLEAR     36  30  80 SE3       29.94S
WAUSAU         CLEAR     34  29  82 E3        29.94F
MOSINEE          N/A     34  30  86 E7        29.96S
MARSHFIELD     CLEAR     37  30  75 E6        29.94S
WISC RAPIDS    CLEAR     39  29  67 E5        29.96S
STEVENS POINT  CLEAR     32  27  83 CALM      29.96S
WAUPACA          N/A     35  29  80 CALM      29.97S
SHAWANO        CLEAR     32  28  86 CALM      29.97S
CLINTONVILLE   CLEAR     32  30  93 CALM      29.97S
$$

WIZ038-039-048-051-010700-
FOX VALLEY

CITY           SKY/WX    TMP DP  RH WIND       PRES   REMARKS
NWS GREEN BAY  CLEAR     32  30  92 CALM      29.97F
APPLETON       CLEAR     36  30  80 CALM      29.97S
OSHKOSH        CLEAR     36  31  82 S5        29.97S
FOND DU LAC    CLEAR     38  30  73 SE3       29.97S
$$

WIZ022-050-052-010700-
EAST CENTRAL WISCONSIN

CITY           SKY/WX    TMP DP  RH WIND       PRES   REMARKS
STURGEON BAY   CLEAR     30  27  86 CALM      29.99S
MANITOWOC      CLEAR     30  28  92 CALM      29.98S
SHEBOYGAN      CLEAR     36  30  79 CALM      29.97S
$$

LMZ563-521-522-541>543-010700-
LAKESHORE

STATION/POSITION TIME  TEMP    WIND        PRES    VSBY  WAVE
                       AIR SEA DIR/SP/G                  HT/PER
                 (UTC) (F)     (DEG/KT/KT) (MB)    (MI)  (FT/S)
SHEBOYGAN LKSHOR 0600   41     350/  9/ 10 1015.7R
KEWAUNEE LKSHORE 0600   32     310/  2/  3 1014.2F
NORTHPORT PIER   0600   32     190/  3/  8 1014.9S
SISTER BAY LKSHO 0600   31        CALM       N/A
CHAMBERS ISLAND  0600   29      CALM  /  2 1015.2S
MENOMINEE LKSHOR 0600   31     290/  3     1015.5S
$$


USA.gov is the U.S. government's official web portal to all federal, state and local government web resources and services.